<?xml version="1.0" encoding="UTF-8" standalone="no" ?>
<gpx xmlns="http://www.topografix.com/GPX/1/1" xmlns:xsi="http://www.w3.org/2001/XMLSchema-instance" xsi:schemaLocation="http://www.topografix.com/GPX/1/1 http://www.topografix.com/GPX/1/1/gpx.xsd" version="1.1" creator="VisuGPX - https://www.visugpx.com">
  <metadata>
    <name>Buis les baronnies - sortie 0</name>
    <desc><![CDATA[Buis les baronnies]]></desc>
  </metadata>
  <trk>
    <name><![CDATA[Buis les baronnies - sortie 0_1]]></name>
    <trkseg>
      <trkpt lat="44.28467" lon="5.28285">
        <ele>382.5</ele>
        <time>2014-05-02T13:09:50Z</time>
      </trkpt>
      <trkpt lat="44.28406" lon="5.28193">
        <ele>377.9</ele>
        <time>2014-05-02T13:09:50Z</time>
      </trkpt>
      <trkpt lat="44.28389" lon="5.28286">
        <ele>381.6</ele>
        <time>2014-05-02T13:09:50Z</time>
      </trkpt>
      <trkpt lat="44.28407" lon="5.28374">
        <ele>387.4</ele>
        <time>2014-05-02T13:09:50Z</time>
      </trkpt>
      <trkpt lat="44.28501" lon="5.28369">
        <ele>388.6</ele>
        <time>2014-05-02T13:09:50Z</time>
      </trkpt>
      <trkpt lat="44.28597" lon="5.28336">
        <ele>389.6</ele>
        <time>2014-05-02T13:09:50Z</time>
      </trkpt>
      <trkpt lat="44.28684" lon="5.28315">
        <ele>392.3</ele>
        <time>2014-05-02T13:09:50Z</time>
      </trkpt>
      <trkpt lat="44.28772" lon="5.28278">
        <ele>391.8</ele>
        <time>2014-05-02T13:09:50Z</time>
      </trkpt>
      <trkpt lat="44.2886" lon="5.28231">
        <ele>392.5</ele>
        <time>2014-05-02T13:09:50Z</time>
      </trkpt>
      <trkpt lat="44.2894" lon="5.28187">
        <ele>392.6</ele>
        <time>2014-05-02T13:09:50Z</time>
      </trkpt>
      <trkpt lat="44.2903" lon="5.28145">
        <ele>393</ele>
        <time>2014-05-02T13:09:50Z</time>
      </trkpt>
      <trkpt lat="44.29122" lon="5.28115">
        <ele>395.7</ele>
        <time>2014-05-02T13:09:50Z</time>
      </trkpt>
      <trkpt lat="44.29209" lon="5.28085">
        <ele>401</ele>
        <time>2014-05-02T13:09:50Z</time>
      </trkpt>
      <trkpt lat="44.29307" lon="5.28038">
        <ele>399.9</ele>
        <time>2014-05-02T13:09:50Z</time>
      </trkpt>
      <trkpt lat="44.29399" lon="5.28015">
        <ele>398.9</ele>
        <time>2014-05-02T13:09:50Z</time>
      </trkpt>
      <trkpt lat="44.29448" lon="5.28122">
        <ele>402.5</ele>
        <time>2014-05-02T13:09:50Z</time>
      </trkpt>
      <trkpt lat="44.29513" lon="5.28189">
        <ele>401</ele>
        <time>2014-05-02T13:09:50Z</time>
      </trkpt>
      <trkpt lat="44.29589" lon="5.28172">
        <ele>405.4</ele>
        <time>2014-05-02T13:09:50Z</time>
      </trkpt>
      <trkpt lat="44.29634" lon="5.28055">
        <ele>408.5</ele>
        <time>2014-05-02T13:09:50Z</time>
      </trkpt>
      <trkpt lat="44.29694" lon="5.27962">
        <ele>411.6</ele>
        <time>2014-05-02T13:09:50Z</time>
      </trkpt>
      <trkpt lat="44.29729" lon="5.27841">
        <ele>414.1</ele>
        <time>2014-05-02T13:09:50Z</time>
      </trkpt>
      <trkpt lat="44.29774" lon="5.27725">
        <ele>420.5</ele>
        <time>2014-05-02T13:09:50Z</time>
      </trkpt>
      <trkpt lat="44.29804" lon="5.27612">
        <ele>426.6</ele>
        <time>2014-05-02T13:09:50Z</time>
      </trkpt>
      <trkpt lat="44.29846" lon="5.27496">
        <ele>436.3</ele>
        <time>2014-05-02T13:09:50Z</time>
      </trkpt>
      <trkpt lat="44.29835" lon="5.27382">
        <ele>432.8</ele>
        <time>2014-05-02T13:09:50Z</time>
      </trkpt>
      <trkpt lat="44.29806" lon="5.27266">
        <ele>433.1</ele>
        <time>2014-05-02T13:09:50Z</time>
      </trkpt>
      <trkpt lat="44.29773" lon="5.27325">
        <ele>436.9</ele>
        <time>2014-05-02T13:09:50Z</time>
      </trkpt>
      <trkpt lat="44.29762" lon="5.27298">
        <ele>442.2</ele>
        <time>2014-05-02T13:09:50Z</time>
      </trkpt>
      <trkpt lat="44.29774" lon="5.27168">
        <ele>455.4</ele>
        <time>2014-05-02T13:09:50Z</time>
      </trkpt>
      <trkpt lat="44.29786" lon="5.27044">
        <ele>465.1</ele>
        <time>2014-05-02T13:09:50Z</time>
      </trkpt>
      <trkpt lat="44.29818" lon="5.26929">
        <ele>473.1</ele>
        <time>2014-05-02T13:09:50Z</time>
      </trkpt>
      <trkpt lat="44.29874" lon="5.26822">
        <ele>487.7</ele>
        <time>2014-05-02T13:09:50Z</time>
      </trkpt>
      <trkpt lat="44.29831" lon="5.26831">
        <ele>495.9</ele>
        <time>2014-05-02T13:09:50Z</time>
      </trkpt>
      <trkpt lat="44.29882" lon="5.26727">
        <ele>505.5</ele>
        <time>2014-05-02T13:09:50Z</time>
      </trkpt>
      <trkpt lat="44.29933" lon="5.26611">
        <ele>511.3</ele>
        <time>2014-05-02T13:09:50Z</time>
      </trkpt>
      <trkpt lat="44.29946" lon="5.26476">
        <ele>522.9</ele>
        <time>2014-05-02T13:09:50Z</time>
      </trkpt>
      <trkpt lat="44.2996" lon="5.26363">
        <ele>530.1</ele>
        <time>2014-05-02T13:09:50Z</time>
      </trkpt>
      <trkpt lat="44.30018" lon="5.26275">
        <ele>542.2</ele>
        <time>2014-05-02T13:09:50Z</time>
      </trkpt>
      <trkpt lat="44.30063" lon="5.26159">
        <ele>547.2</ele>
        <time>2014-05-02T13:09:50Z</time>
      </trkpt>
      <trkpt lat="44.30093" lon="5.26069">
        <ele>552.2</ele>
        <time>2014-05-02T13:09:50Z</time>
      </trkpt>
      <trkpt lat="44.30169" lon="5.26017">
        <ele>562.5</ele>
        <time>2014-05-02T13:09:50Z</time>
      </trkpt>
      <trkpt lat="44.30213" lon="5.25924">
        <ele>570.3</ele>
        <time>2014-05-02T13:09:50Z</time>
      </trkpt>
      <trkpt lat="44.30262" lon="5.25824">
        <ele>571.7</ele>
        <time>2014-05-02T13:09:50Z</time>
      </trkpt>
      <trkpt lat="44.30323" lon="5.25736">
        <ele>582.8</ele>
        <time>2014-05-02T13:09:50Z</time>
      </trkpt>
      <trkpt lat="44.30374" lon="5.25641">
        <ele>593.6</ele>
        <time>2014-05-02T13:09:50Z</time>
      </trkpt>
      <trkpt lat="44.30439" lon="5.25655">
        <ele>589</ele>
        <time>2014-05-02T13:09:50Z</time>
      </trkpt>
      <trkpt lat="44.30507" lon="5.25587">
        <ele>604</ele>
        <time>2014-05-02T13:09:50Z</time>
      </trkpt>
      <trkpt lat="44.30542" lon="5.25477">
        <ele>605.6</ele>
        <time>2014-05-02T13:09:50Z</time>
      </trkpt>
      <trkpt lat="44.30539" lon="5.25361">
        <ele>608.2</ele>
        <time>2014-05-02T13:09:50Z</time>
      </trkpt>
      <trkpt lat="44.30527" lon="5.25234">
        <ele>617.7</ele>
        <time>2014-05-02T13:09:50Z</time>
      </trkpt>
      <trkpt lat="44.30526" lon="5.25119">
        <ele>624.1</ele>
        <time>2014-05-02T13:09:50Z</time>
      </trkpt>
      <trkpt lat="44.30555" lon="5.25031">
        <ele>644.3</ele>
        <time>2014-05-02T13:09:50Z</time>
      </trkpt>
      <trkpt lat="44.30521" lon="5.24933">
        <ele>652.2</ele>
        <time>2014-05-02T13:09:50Z</time>
      </trkpt>
      <trkpt lat="44.3046" lon="5.24844">
        <ele>659.6</ele>
        <time>2014-05-02T13:09:50Z</time>
      </trkpt>
      <trkpt lat="44.30501" lon="5.24824">
        <ele>674.7</ele>
        <time>2014-05-02T13:09:50Z</time>
      </trkpt>
      <trkpt lat="44.30581" lon="5.24871">
        <ele>687.7</ele>
        <time>2014-05-02T13:09:50Z</time>
      </trkpt>
      <trkpt lat="44.30659" lon="5.24926">
        <ele>700.4</ele>
        <time>2014-05-02T13:09:50Z</time>
      </trkpt>
      <trkpt lat="44.30719" lon="5.24963">
        <ele>709.3</ele>
        <time>2014-05-02T13:09:50Z</time>
      </trkpt>
      <trkpt lat="44.30752" lon="5.24957">
        <ele>728.4</ele>
        <time>2014-05-02T13:09:50Z</time>
      </trkpt>
      <trkpt lat="44.3074" lon="5.24961">
        <ele>719.9</ele>
        <time>2014-05-02T13:09:50Z</time>
      </trkpt>
      <trkpt lat="44.30722" lon="5.24949">
        <ele>712.3</ele>
        <time>2014-05-02T13:09:50Z</time>
      </trkpt>
      <trkpt lat="44.30678" lon="5.24859">
        <ele>726</ele>
        <time>2014-05-02T13:09:50Z</time>
      </trkpt>
      <trkpt lat="44.30642" lon="5.24737">
        <ele>741</ele>
        <time>2014-05-02T13:09:50Z</time>
      </trkpt>
      <trkpt lat="44.30601" lon="5.2462">
        <ele>753.8</ele>
        <time>2014-05-02T13:09:50Z</time>
      </trkpt>
      <trkpt lat="44.30608" lon="5.24487">
        <ele>772.2</ele>
        <time>2014-05-02T13:09:50Z</time>
      </trkpt>
      <trkpt lat="44.30623" lon="5.2436">
        <ele>787</ele>
        <time>2014-05-02T13:09:50Z</time>
      </trkpt>
      <trkpt lat="44.3063" lon="5.2425">
        <ele>803.2</ele>
        <time>2014-05-02T13:09:50Z</time>
      </trkpt>
      <trkpt lat="44.30583" lon="5.24144">
        <ele>812.3</ele>
        <time>2014-05-02T13:09:50Z</time>
      </trkpt>
      <trkpt lat="44.30604" lon="5.2404">
        <ele>819.7</ele>
        <time>2014-05-02T13:09:50Z</time>
      </trkpt>
      <trkpt lat="44.30637" lon="5.23936">
        <ele>825.4</ele>
        <time>2014-05-02T13:09:50Z</time>
      </trkpt>
      <trkpt lat="44.30593" lon="5.23894">
        <ele>825.1</ele>
        <time>2014-05-02T13:09:50Z</time>
      </trkpt>
      <trkpt lat="44.30514" lon="5.23893">
        <ele>830.7</ele>
        <time>2014-05-02T13:09:50Z</time>
      </trkpt>
      <trkpt lat="44.30492" lon="5.2377">
        <ele>837.1</ele>
        <time>2014-05-02T13:09:50Z</time>
      </trkpt>
      <trkpt lat="44.30534" lon="5.23668">
        <ele>836.3</ele>
        <time>2014-05-02T13:09:50Z</time>
      </trkpt>
      <trkpt lat="44.30568" lon="5.23569">
        <ele>831.2</ele>
        <time>2014-05-02T13:09:50Z</time>
      </trkpt>
      <trkpt lat="44.3062" lon="5.23473">
        <ele>836.3</ele>
        <time>2014-05-02T13:09:50Z</time>
      </trkpt>
      <trkpt lat="44.30673" lon="5.23388">
        <ele>841</ele>
        <time>2014-05-02T13:09:50Z</time>
      </trkpt>
      <trkpt lat="44.30618" lon="5.23417">
        <ele>839</ele>
        <time>2014-05-02T13:09:50Z</time>
      </trkpt>
      <trkpt lat="44.30545" lon="5.23475">
        <ele>842.5</ele>
        <time>2014-05-02T13:09:50Z</time>
      </trkpt>
      <trkpt lat="44.3047" lon="5.23538">
        <ele>845.5</ele>
        <time>2014-05-02T13:09:50Z</time>
      </trkpt>
      <trkpt lat="44.30386" lon="5.23576">
        <ele>849.8</ele>
        <time>2014-05-02T13:09:50Z</time>
      </trkpt>
      <trkpt lat="44.30333" lon="5.2365">
        <ele>849.1</ele>
        <time>2014-05-02T13:09:50Z</time>
      </trkpt>
      <trkpt lat="44.30277" lon="5.23736">
        <ele>845.8</ele>
        <time>2014-05-02T13:09:50Z</time>
      </trkpt>
      <trkpt lat="44.30211" lon="5.2381">
        <ele>842.6</ele>
        <time>2014-05-02T13:09:50Z</time>
      </trkpt>
      <trkpt lat="44.30159" lon="5.2389">
        <ele>841</ele>
        <time>2014-05-02T13:09:50Z</time>
      </trkpt>
      <trkpt lat="44.30106" lon="5.23976">
        <ele>839.4</ele>
        <time>2014-05-02T13:09:50Z</time>
      </trkpt>
      <trkpt lat="44.30063" lon="5.24075">
        <ele>838.5</ele>
        <time>2014-05-02T13:09:50Z</time>
      </trkpt>
      <trkpt lat="44.30043" lon="5.24191">
        <ele>839.3</ele>
        <time>2014-05-02T13:09:50Z</time>
      </trkpt>
      <trkpt lat="44.30029" lon="5.24302">
        <ele>839.8</ele>
        <time>2014-05-02T13:09:50Z</time>
      </trkpt>
      <trkpt lat="44.29984" lon="5.2442">
        <ele>850.2</ele>
        <time>2014-05-02T13:09:50Z</time>
      </trkpt>
      <trkpt lat="44.2995" lon="5.24564">
        <ele>859.3</ele>
        <time>2014-05-02T13:09:50Z</time>
      </trkpt>
      <trkpt lat="44.29894" lon="5.24659">
        <ele>862.6</ele>
        <time>2014-05-02T13:09:50Z</time>
      </trkpt>
      <trkpt lat="44.29858" lon="5.24752">
        <ele>849.6</ele>
        <time>2014-05-02T13:09:50Z</time>
      </trkpt>
      <trkpt lat="44.29866" lon="5.24861">
        <ele>842</ele>
        <time>2014-05-02T13:09:50Z</time>
      </trkpt>
      <trkpt lat="44.29859" lon="5.24979">
        <ele>848.2</ele>
        <time>2014-05-02T13:09:50Z</time>
      </trkpt>
      <trkpt lat="44.2986" lon="5.25086">
        <ele>837.7</ele>
        <time>2014-05-02T13:09:50Z</time>
      </trkpt>
      <trkpt lat="44.29815" lon="5.25175">
        <ele>836.5</ele>
        <time>2014-05-02T13:09:50Z</time>
      </trkpt>
      <trkpt lat="44.29771" lon="5.25227">
        <ele>853.9</ele>
        <time>2014-05-02T13:09:50Z</time>
      </trkpt>
      <trkpt lat="44.29728" lon="5.25311">
        <ele>854.6</ele>
        <time>2014-05-02T13:09:50Z</time>
      </trkpt>
      <trkpt lat="44.2967" lon="5.25339">
        <ele>850.2</ele>
        <time>2014-05-02T13:09:50Z</time>
      </trkpt>
      <trkpt lat="44.29594" lon="5.25368">
        <ele>828.8</ele>
        <time>2014-05-02T13:09:50Z</time>
      </trkpt>
      <trkpt lat="44.29526" lon="5.25431">
        <ele>808.5</ele>
        <time>2014-05-02T13:09:50Z</time>
      </trkpt>
      <trkpt lat="44.29462" lon="5.25494">
        <ele>787</ele>
        <time>2014-05-02T13:09:50Z</time>
      </trkpt>
      <trkpt lat="44.29395" lon="5.25547">
        <ele>770.8</ele>
        <time>2014-05-02T13:09:50Z</time>
      </trkpt>
      <trkpt lat="44.29329" lon="5.25611">
        <ele>758.9</ele>
        <time>2014-05-02T13:09:50Z</time>
      </trkpt>
      <trkpt lat="44.2926" lon="5.25655">
        <ele>743.2</ele>
        <time>2014-05-02T13:09:50Z</time>
      </trkpt>
      <trkpt lat="44.29199" lon="5.25585">
        <ele>726.9</ele>
        <time>2014-05-02T13:09:50Z</time>
      </trkpt>
      <trkpt lat="44.29172" lon="5.25594">
        <ele>715.1</ele>
        <time>2014-05-02T13:09:50Z</time>
      </trkpt>
      <trkpt lat="44.29153" lon="5.25662">
        <ele>701.1</ele>
        <time>2014-05-02T13:09:50Z</time>
      </trkpt>
      <trkpt lat="44.29084" lon="5.25658">
        <ele>686.2</ele>
        <time>2014-05-02T13:09:50Z</time>
      </trkpt>
      <trkpt lat="44.29005" lon="5.25648">
        <ele>668.4</ele>
        <time>2014-05-02T13:09:50Z</time>
      </trkpt>
      <trkpt lat="44.28926" lon="5.25681">
        <ele>657.3</ele>
        <time>2014-05-02T13:09:50Z</time>
      </trkpt>
      <trkpt lat="44.28855" lon="5.25734">
        <ele>648.7</ele>
        <time>2014-05-02T13:09:50Z</time>
      </trkpt>
      <trkpt lat="44.28801" lon="5.25805">
        <ele>647.9</ele>
        <time>2014-05-02T13:09:50Z</time>
      </trkpt>
      <trkpt lat="44.28745" lon="5.25885">
        <ele>643.3</ele>
        <time>2014-05-02T13:09:50Z</time>
      </trkpt>
      <trkpt lat="44.28713" lon="5.25976">
        <ele>634.9</ele>
        <time>2014-05-02T13:09:50Z</time>
      </trkpt>
      <trkpt lat="44.28735" lon="5.26086">
        <ele>625.3</ele>
        <time>2014-05-02T13:09:50Z</time>
      </trkpt>
      <trkpt lat="44.28756" lon="5.26188">
        <ele>616.5</ele>
        <time>2014-05-02T13:09:50Z</time>
      </trkpt>
      <trkpt lat="44.28696" lon="5.26204">
        <ele>602.3</ele>
        <time>2014-05-02T13:09:50Z</time>
      </trkpt>
      <trkpt lat="44.28651" lon="5.26115">
        <ele>596.6</ele>
        <time>2014-05-02T13:09:50Z</time>
      </trkpt>
      <trkpt lat="44.28594" lon="5.26042">
        <ele>591.9</ele>
        <time>2014-05-02T13:09:50Z</time>
      </trkpt>
      <trkpt lat="44.28533" lon="5.25967">
        <ele>587.7</ele>
        <time>2014-05-02T13:09:50Z</time>
      </trkpt>
      <trkpt lat="44.28461" lon="5.25924">
        <ele>580.8</ele>
        <time>2014-05-02T13:09:50Z</time>
      </trkpt>
      <trkpt lat="44.28383" lon="5.25916">
        <ele>575.7</ele>
        <time>2014-05-02T13:09:50Z</time>
      </trkpt>
      <trkpt lat="44.283" lon="5.25921">
        <ele>565.4</ele>
        <time>2014-05-02T13:09:50Z</time>
      </trkpt>
      <trkpt lat="44.28227" lon="5.2597">
        <ele>554.1</ele>
        <time>2014-05-02T13:09:50Z</time>
      </trkpt>
      <trkpt lat="44.28154" lon="5.26024">
        <ele>539.2</ele>
        <time>2014-05-02T13:09:50Z</time>
      </trkpt>
      <trkpt lat="44.28109" lon="5.26095">
        <ele>514.1</ele>
        <time>2014-05-02T13:09:50Z</time>
      </trkpt>
      <trkpt lat="44.28088" lon="5.26168">
        <ele>502.2</ele>
        <time>2014-05-02T13:09:50Z</time>
      </trkpt>
      <trkpt lat="44.28029" lon="5.26224">
        <ele>492</ele>
        <time>2014-05-02T13:09:50Z</time>
      </trkpt>
      <trkpt lat="44.28035" lon="5.26324">
        <ele>481.3</ele>
        <time>2014-05-02T13:09:50Z</time>
      </trkpt>
      <trkpt lat="44.28005" lon="5.26422">
        <ele>473</ele>
        <time>2014-05-02T13:09:50Z</time>
      </trkpt>
      <trkpt lat="44.27938" lon="5.26444">
        <ele>468.6</ele>
        <time>2014-05-02T13:09:50Z</time>
      </trkpt>
      <trkpt lat="44.27871" lon="5.26373">
        <ele>461.4</ele>
        <time>2014-05-02T13:09:50Z</time>
      </trkpt>
      <trkpt lat="44.27798" lon="5.26392">
        <ele>453.1</ele>
        <time>2014-05-02T13:09:50Z</time>
      </trkpt>
      <trkpt lat="44.27733" lon="5.26457">
        <ele>443.5</ele>
        <time>2014-05-02T13:09:50Z</time>
      </trkpt>
      <trkpt lat="44.27666" lon="5.26504">
        <ele>442.7</ele>
        <time>2014-05-02T13:09:50Z</time>
      </trkpt>
      <trkpt lat="44.27594" lon="5.26481">
        <ele>436.4</ele>
        <time>2014-05-02T13:09:50Z</time>
      </trkpt>
      <trkpt lat="44.27515" lon="5.26454">
        <ele>425.5</ele>
        <time>2014-05-02T13:09:50Z</time>
      </trkpt>
      <trkpt lat="44.2744" lon="5.26454">
        <ele>418</ele>
        <time>2014-05-02T13:09:50Z</time>
      </trkpt>
      <trkpt lat="44.27426" lon="5.2655">
        <ele>412.8</ele>
        <time>2014-05-02T13:09:50Z</time>
      </trkpt>
      <trkpt lat="44.27418" lon="5.26664">
        <ele>403.2</ele>
        <time>2014-05-02T13:09:50Z</time>
      </trkpt>
      <trkpt lat="44.27432" lon="5.2677">
        <ele>397.9</ele>
        <time>2014-05-02T13:09:50Z</time>
      </trkpt>
      <trkpt lat="44.2744" lon="5.26875">
        <ele>389.2</ele>
        <time>2014-05-02T13:09:50Z</time>
      </trkpt>
      <trkpt lat="44.27489" lon="5.2696">
        <ele>380</ele>
        <time>2014-05-02T13:09:50Z</time>
      </trkpt>
      <trkpt lat="44.27509" lon="5.27037">
        <ele>372.2</ele>
        <time>2014-05-02T13:09:50Z</time>
      </trkpt>
      <trkpt lat="44.27475" lon="5.27131">
        <ele>369.1</ele>
        <time>2014-05-02T13:09:50Z</time>
      </trkpt>
      <trkpt lat="44.27509" lon="5.2723">
        <ele>370</ele>
        <time>2014-05-02T13:09:50Z</time>
      </trkpt>
      <trkpt lat="44.27587" lon="5.27216">
        <ele>373</ele>
        <time>2014-05-02T13:09:50Z</time>
      </trkpt>
      <trkpt lat="44.27637" lon="5.27303">
        <ele>373.9</ele>
        <time>2014-05-02T13:09:50Z</time>
      </trkpt>
      <trkpt lat="44.27653" lon="5.27407">
        <ele>373.4</ele>
        <time>2014-05-02T13:09:50Z</time>
      </trkpt>
      <trkpt lat="44.27712" lon="5.2745">
        <ele>377.5</ele>
        <time>2014-05-02T13:09:50Z</time>
      </trkpt>
      <trkpt lat="44.27789" lon="5.27475">
        <ele>384.8</ele>
        <time>2014-05-02T13:09:50Z</time>
      </trkpt>
      <trkpt lat="44.27828" lon="5.27571">
        <ele>384.1</ele>
        <time>2014-05-02T13:09:50Z</time>
      </trkpt>
      <trkpt lat="44.27875" lon="5.27657">
        <ele>383.9</ele>
        <time>2014-05-02T13:09:50Z</time>
      </trkpt>
      <trkpt lat="44.27931" lon="5.27736">
        <ele>383.6</ele>
        <time>2014-05-02T13:09:50Z</time>
      </trkpt>
      <trkpt lat="44.27977" lon="5.27834">
        <ele>383.3</ele>
        <time>2014-05-02T13:09:50Z</time>
      </trkpt>
      <trkpt lat="44.28043" lon="5.27906">
        <ele>382.7</ele>
        <time>2014-05-02T13:09:50Z</time>
      </trkpt>
      <trkpt lat="44.28062" lon="5.28011">
        <ele>375</ele>
        <time>2014-05-02T13:09:50Z</time>
      </trkpt>
      <trkpt lat="44.2813" lon="5.28037">
        <ele>373.9</ele>
        <time>2014-05-02T13:09:50Z</time>
      </trkpt>
      <trkpt lat="44.28208" lon="5.28088">
        <ele>374.6</ele>
        <time>2014-05-02T13:09:50Z</time>
      </trkpt>
      <trkpt lat="44.28279" lon="5.28135">
        <ele>375.9</ele>
        <time>2014-05-02T13:09:50Z</time>
      </trkpt>
      <trkpt lat="44.28349" lon="5.28183">
        <ele>377</ele>
        <time>2014-05-02T13:09:50Z</time>
      </trkpt>
      <trkpt lat="44.28412" lon="5.28241">
        <ele>379.7</ele>
        <time>2014-05-02T13:09:50Z</time>
      </trkpt>
      <trkpt lat="44.28454" lon="5.28275">
        <ele>381.8</ele>
        <time>2014-05-02T13:09:50Z</time>
      </trkpt>
      <trkpt lat="44.28448" lon="5.28278">
        <ele>382</ele>
        <time>2014-05-02T13:09:50Z</time>
      </trkpt>
      <trkpt lat="44.28449" lon="5.28284">
        <ele>382.3</ele>
        <time>2014-05-02T13:09:50Z</time>
      </trkpt>
      <trkpt lat="44.28449" lon="5.28286">
        <ele>382.3</ele>
        <time>2014-05-02T13:09:50Z</time>
      </trkpt>
      <trkpt lat="44.2845" lon="5.28288">
        <ele>382.4</ele>
        <time>2014-05-02T13:09:50Z</time>
      </trkpt>
      <trkpt lat="44.28446" lon="5.2829">
        <ele>382.5</ele>
        <time>2014-05-02T13:09:50Z</time>
      </trkpt>
      <trkpt lat="44.28448" lon="5.28291">
        <ele>382.5</ele>
        <time>2014-05-02T13:09:50Z</time>
      </trkpt>
      <trkpt lat="44.28448" lon="5.28293">
        <ele>382.6</ele>
        <time>2014-05-02T13:09:50Z</time>
      </trkpt>
      <trkpt lat="44.2845" lon="5.28292">
        <ele>382.6</ele>
        <time>2014-05-02T13:09:50Z</time>
      </trkpt>
      <trkpt lat="44.28469" lon="5.28317">
        <ele>384.3</ele>
        <time>2014-05-02T13:09:50Z</time>
      </trkpt>
      <trkpt lat="44.28473" lon="5.28315">
        <ele>384.3</ele>
        <time>2014-05-02T13:09:50Z</time>
      </trkpt>
      <trkpt lat="44.28467" lon="5.2831">
        <ele>384</ele>
        <time>2014-05-02T13:09:50Z</time>
      </trkpt>
      <trkpt lat="44.28451" lon="5.28299">
        <ele>382.9</ele>
        <time>2014-05-02T13:09:50Z</time>
      </trkpt>
      <trkpt lat="44.28451" lon="5.28297">
        <ele>382.9</ele>
        <time>2014-05-02T13:09:50Z</time>
      </trkpt>
      <trkpt lat="44.28452" lon="5.28295">
        <ele>382.8</ele>
        <time>2014-05-02T13:09:50Z</time>
      </trkpt>
      <trkpt lat="44.28454" lon="5.28294">
        <ele>382.8</ele>
        <time>2014-05-02T13:09:50Z</time>
      </trkpt>
      <trkpt lat="44.28455" lon="5.28292">
        <ele>382.7</ele>
        <time>2014-05-02T13:09:50Z</time>
      </trkpt>
      <trkpt lat="44.28457" lon="5.28291">
        <ele>382.7</ele>
        <time>2014-05-02T13:09:50Z</time>
      </trkpt>
      <trkpt lat="44.28457" lon="5.28288">
        <ele>382.5</ele>
        <time>2014-05-02T13:09:50Z</time>
      </trkpt>
      <trkpt lat="44.28456" lon="5.28284">
        <ele>382.3</ele>
        <time>2014-05-02T13:09:50Z</time>
      </trkpt>
      <trkpt lat="44.28454" lon="5.28282">
        <ele>382.2</ele>
        <time>2014-05-02T13:09:50Z</time>
      </trkpt>
      <trkpt lat="44.28452" lon="5.28281">
        <ele>382.1</ele>
        <time>2014-05-02T13:09:50Z</time>
      </trkpt>
      <trkpt lat="44.2845" lon="5.28281">
        <ele>382.1</ele>
        <time>2014-05-02T13:09:50Z</time>
      </trkpt>
      <trkpt lat="44.28473" lon="5.2829">
        <ele>382.9</ele>
        <time>2014-05-02T13:09:50Z</time>
      </trkpt>
    </trkseg>
  </trk>
</gpx>